Regional Weather Roundup
Issued by NWS Sterling, VA

Home | Current Version | Previous Version | Text Only | Print | Product List | Glossary On
Versions: 1 2 3 4 5 6 7 8 9 10 11 12 13 14 15 16 17 18 19 20 21 22 23 24 25 26 27 28 29 30 31 32 33 34 35 36 37 38 39 40 41 42 43 44 45 46 47 48 49 50
000
ASUS41 KLWX 292311
RWRLWX

REGIONAL WEATHER ROUNDUP
NATIONAL WEATHER SERVICE BALTIMORE MD/WASHINGTON DC
700 PM EDT MON MAY 29 2017

Note: "FAIR" indicates few or no clouds below 12,000 feet
with no significant weather and/or obstructions to visibility.
 TC=TEMPERATURE CELSIUS

 * =Non NWS site. Station does not report precipitation (e.g. rain,
    snow, etc.), thunder, or fog.

DCZ001-MDZ009-015-VAZ040>042-051-053>054-300000-
WASHINGTON METRO

CITY           SKY/WX    TMP DP  RH WIND       PRES   REMARKS
WASHINGTON NAT CLOUDY    81  55  40 NW7       29.96R
DULLES         PTSUNNY   78  55  44 W5        29.96R
ANDREWS AFB    CLOUDY    75  67  75 E8        29.95R
FT BELVOIR     CLOUDY    76  62  62 CALM      29.95R
QUANTICO       CLOUDY    76  67  73 CALM      29.96R
COLLEGE PARK*  MOSUNNY   79  56  44 W3        29.95R
LEESBURG*      PTSUNNY   81  61  50 CALM      29.96F
MANASSAS*      CLOUDY    79  59  50 NE6       29.95S
GAITHERSBURG*  CLOUDY    78  57  48 W7        29.98R

$$

MDZ006>007-011-014-300000-
BALTIMORE METRO

CITY           SKY/WX    TMP DP  RH WIND       PRES   REMARKS
BWI AIRPORT    PTSUNNY   72  66  81 E10       29.97R
MD SCIENCE CTR   N/A     73  65  75 MISG      29.96R
MARTIN STATE   PTSUNNY   72  66  83 NE8       29.99R
ANNAPOLIS      CLOUDY    74  69  85 NE7       29.97R
FORT MEADE*    MOSUNNY   72  64  78 E7        29.99R

$$

MDZ012-015-019>023-300000-
MARYLAND EASTERN SHORE

CITY           SKY/WX    TMP DP  RH WIND       PRES   REMARKS
OCEAN CITY     CLOUDY    61  57  87 E10       30.02R
SALISBURY      CLOUDY    67  62  84 NE13      29.98R
BAY BRIDGE AP* CLOUDY    72  66  83 E8        29.96S
CAMBRIDGE*     SUNNY     72  66  83 E8        29.96S
EASTON*        PTSUNNY   72  64  78 E7        30.01R

$$

MDZ017>025-300000-
SOUTHERN MARYLAND

CITY           SKY/WX    TMP DP  RH WIND       PRES   REMARKS
PATUXENT RIVER PTSUNNY   73  68  84 SE8       29.95S
ST INIGOES     CLOUDY    74  67  78 E6        29.95R
LEONARDTOWN*   CLOUDY    73  66  78 E3        29.97R

$$

MDZ003>005-300000-
NORTH CENTRAL MARYLAND

CITY           SKY/WX    TMP DP  RH WIND       PRES   REMARKS
FREDERICK*     SUNNY    N/A N/A N/A SW7       29.98R
HAGERSTOWN APT MOSUNNY   79  56  45 SW6       29.95S
WESTMINSTER*   PTSUNNY   79  66  65 SE7       29.97R

$$

MDZ501>502-300000-
WESTERN MARYLAND

CITY           SKY/WX    TMP DP  RH WIND       PRES   REMARKS
OAKLAND*       SUNNY     64  52  63 SW5       30.04F
CUMBERLAND*    MOSUNNY   79  54  41 S5        29.99S

$$

VAZ025>031-300000-
SHENANDOAH VALLEY

CITY           SKY/WX    TMP DP  RH WIND       PRES   REMARKS
WINCHESTER*    CLOUDY    73  59  60 CALM      29.97S
FRONT ROYAL*   MOSUNNY   73  63  68 CALM      29.96S
LURAY*         CLOUDY    77  55  47 CALM      29.98R
NEW MARKET*    PTSUNNY   71  64  79 CALM      29.96S
STAUNTON*      CLOUDY    73  54  51 W5        30.01R
WAYNESBORO*    CLOUDY    71  56  58 SW3       30.00F

$$

WVZ021-048>050-054>055-300000-
EASTERN WEST VIRGINIA PANHANDLE

CITY           SKY/WX    TMP DP  RH WIND       PRES   REMARKS
MARTINSBURG    CLOUDY    77  60  55 CALM      29.95R
PETERSBURG*    PTSUNNY   75  63  66 CALM      29.98S

$$

VAZ036>039-050-300000-
CENTRAL FOOTHILLS

CITY           SKY/WX    TMP DP  RH WIND       PRES   REMARKS
CHARLOTTESVILL CLOUDY    78  62  57 CALM      29.96F
CULPEPER*      PTSUNNY   75  68  78 CALM      29.96S
ORANGE*        CLOUDY    73  64  73 CALM      29.96S
GORDONSVILLE*  CLOUDY    71  70  96 CALM      29.96S
WARRENTON*     CLOUDY    76  63  65 CALM      29.95S

$$

VAZ055>057-300000-
NORTH AND CENTRAL PIEDMONT

CITY           SKY/WX    TMP DP  RH WIND       PRES   REMARKS
FREDERICKSBRG* PTSUNNY   76  64  65 NE3       29.94S
STAFFORD*      CLOUDY    73  70  90 CALM      30.00R

$$

NCZ024-NYZ072-PAZ021-071-VAZ022-071-300000-
OTHER REGIONAL OBSERVATIONS

CITY           SKY/WX    TMP DP  RH WIND       PRES   REMARKS
NEW YORK CITY  CLOUDY    57  53  86 E3        30.09R
PHILADELPHIA   CLOUDY    62  57  83 E7        30.03R
PITTSBURGH     CLOUDY    76  49  38 SW6       29.93S
ROANOKE        CLOUDY    75  57  53 N6        30.01F
RICHMOND       CLOUDY    82  71  69 S6        29.94R
RALEIGH        PTSUNNY   81  66  60 CALM      29.97S

$$

ANZ530>537-300000-
MARINE OBSERVATIONS

STATION/POSITION TIME  TEMP    WIND        PRES
                       AIR SEA DIR/SP/G
                 (UTC) (F)     (DEG/KT/KT) (MB)
THOMAS PT LIGHT  2300   71 66   90/  6/  6   N/A
BALT KEY BRIDGE  2242   70      70/  7/  8 1014.5F
COVE POINT       2242   71     180/  5/  6 1015.0S
LEWISETTA        2242   72 73  130/ 10/ 12 1014.1R
SOLOMONS ISLAND  2242   72 70  130/  5/  5   N/A
PINEY POINT      2248          150/  8/  8   N/A

$$




USA.gov is the U.S. government's official web portal to all federal, state and local government web resources and services.